#timestamp,LO_Frequency,Hit 
1505228415.1,286046997.4,N
1505228416.0,286046997.4,N
1505228435.8,286046998.3,N
1505228455.7,286047001.1,N
1505228475.5,286046994.9,N
1505228495.3,286046998.0,N
1505228515.1,286046995.2,N
1505228535.9,286046996.3,N
1505228555.7,286046997.7,N
1505228575.5,286046996.9,N
1505228595.4,286046997.7,N
1505228615.2,286046997.8,N
1505228635.0,286046995.0,N
1505228635.9,286046995.0,N
1505228655.8,286046995.6,N
1505228675.6,286046995.3,N
1505228695.4,286046997.4,N
1505228715.3,286046993.9,P
1505228735.1,286046995.7,P
1505228755.8,286046999.4,N
1505228775.7,286046998.4,N
1505228795.5,286046999.2,N
1505228815.3,286046994.9,N
1505228835.2,286046997.0,N
1505228855.9,286046999.3,N
1505228875.7,286046997.6,N
1505228895.5,286046997.3,N
1505228915.4,286046998.7,N
1505228935.2,286047000.6,N
1505228955.0,286046997.1,N
1505228955.9,286046997.1,N
1505228975.8,286046997.8,N
1505228995.6,286046999.3,N
1505229015.4,286046999.3,N
1505229035.3,286046997.3,N
1505229055.1,286046993.9,P
1505229075.8,286046997.0,N
1505229095.7,286046997.0,N
1505229115.5,286046997.1,N
1505229135.3,286046994.9,P
1505229155.2,286046998.4,N
1505229175.0,286047000.7,N
1505229175.9,286047000.7,N
1505229195.7,286047001.2,N
1505229215.6,286046998.5,N
1505229235.4,286046997.3,N
1505229255.2,286046994.9,N
1505229275.1,286046998.4,N
1505229276.0,286046998.4,N
1505229295.8,286046999.3,N
1505229315.6,286046999.9,N
1505229335.5,286047000.5,N
1505229355.3,286047000.3,N
1505229375.1,286047001.1,N
1505229395.9,286046997.1,N
1505229415.7,286046996.1,N
1505229435.5,286046996.2,N
1505229455.3,286046999.2,N
1505229475.2,286046998.9,N
1505229495.0,286046999.4,N
1505229495.9,286046999.4,N
1505229515.7,286046995.5,N
1505229535.6,286046997.7,N
1505229555.4,286046995.2,N
1505229575.2,286046992.0,P
1505229595.1,286046998.0,N
1505229596.0,286046998.0,N
1505229615.8,286046995.6,N
1505229635.6,286046999.2,N
1505229655.5,286047000.1,N
1505229675.3,286047001.1,N
1505229695.1,286047001.0,N
1505229715.9,286047000.8,N
1505229735.7,286047000.4,N
1505229755.5,286047002.6,N
1505229775.4,286047000.3,N
1505229795.2,286046999.9,N
1505229815.0,286047000.0,N
1505229815.9,286047000.0,N
1505229835.8,286046999.0,N
1505229855.6,286046999.6,N
1505229875.4,286046996.8,N
1505229895.2,286046999.4,N
1505229915.1,286046999.6,N
1505229916.0,286046999.6,N
1505229935.8,286046999.3,N
1505229955.6,286047000.2,N
1505229975.5,286047002.0,N
1505229995.3,286046999.0,N
1505230015.1,286046994.9,N
1505230035.9,286046997.8,N
1505230055.7,286046994.2,N
1505230075.5,286046994.1,N
1505230095.4,286046993.8,N
1505230115.2,286046995.9,N
1505230135.0,286046994.2,N
1505230135.9,286046994.2,N
1505230155.8,286046997.7,N
1505230175.6,286046998.8,N
1505230195.4,286046996.6,N
1505230215.2,286046999.4,N
1505230235.1,286046999.0,N
1505230236.0,286046999.0,N
1505230255.8,286046997.9,N
1505230275.6,286046995.5,N
1505230295.5,286046995.1,N
1505230315.3,286046997.3,N
1505230335.1,286046998.9,N
1505230355.9,286046999.1,N
1505230375.7,286046997.9,N
1505230395.5,286046995.6,N
1505230415.4,286046993.6,N
1505230435.2,286046993.9,N
1505230455.0,286046994.7,N
1505230455.9,286046994.7,N
1505230475.8,286046993.9,N
1505230495.6,286046992.9,P
1505230515.4,286046997.0,N
1505230535.3,286047000.6,N
1505230555.1,286047002.8,N
1505230556.0,286047002.8,N
1505230575.8,286046997.0,N
1505230595.7,286046997.2,N
1505230615.5,286046995.0,N
1505230635.3,286046995.0,N
1505230655.2,286046995.2,N
1505230675.9,286046993.4,N
1505230695.7,286046994.8,N
1505230715.5,286046996.7,N
1505230735.4,286047002.3,N
1505230755.2,286047006.0,N
1505230775.0,286047000.0,N
1505230775.9,286047000.0,N
1505230795.8,286046999.6,N
1505230815.6,286046999.2,N
1505230835.4,286046999.2,N
1505230855.3,286046999.3,N
1505230875.1,286046997.2,N
1505230876.0,286046997.2,N
1505230895.8,286046995.7,N
1505230915.7,286046997.4,N
1505230935.5,286047002.0,N
1505230955.3,286047006.9,N
1505230975.2,286047004.9,N
1505230995.9,286047005.5,N
1505231015.7,286047004.1,N
1505231035.6,286047004.2,N
1505231055.4,286047005.6,N
1505231075.2,286047010.1,N
1505231095.0,286047010.2,N
1505231095.9,286047010.2,N
1505231115.8,286047011.6,N
1505231135.6,286047009.9,N
1505231155.4,286047011.6,N
1505231175.3,286047013.6,N
1505231195.1,286047014.7,N
1505231215.8,286047020.2,P
1505231235.7,286047020.8,N
1505231255.5,286047023.5,N
1505231275.4,286047028.4,P
1505231295.2,286047011.1,N
1505231315.0,286047014.4,N
1505231315.9,286047014.4,N
1505231335.7,286047015.9,N
1505231355.6,286047015.9,N
1505231375.4,286047013.0,N
1505231395.2,286047013.6,N
1505231415.1,286047011.7,N
1505231416.0,286047011.7,N
1505231435.8,286047011.4,N
1505231455.7,286047018.1,P
1505231475.5,286047001.7,N
1505231495.3,286047005.9,N
1505231515.1,286047003.1,N
1505231535.9,286047005.3,N
1505231555.7,286047004.7,N
1505231575.5,286047007.2,N
1505231595.4,286047005.2,N
1505231615.2,286047004.3,N
1505231635.0,286047003.6,N
1505231635.9,286047003.6,N
1505231655.8,286047004.1,N
1505231675.6,286047003.9,N
1505231695.4,286047000.3,N
1505231715.3,286047000.6,N
1505231735.1,286046998.9,N
1505231736.0,286046998.9,N
1505231755.8,286046995.2,N
1505231775.7,286046997.1,N
1505231795.5,286046996.8,N
1505231815.3,286046993.7,N
1505231835.1,286046997.5,N
1505231855.9,286047001.2,N
1505231875.7,286046996.7,N
1505231895.5,286046999.3,N
1505231915.4,286046997.7,N
1505231935.2,286046997.5,N
1505231955.0,286046997.8,N
1505231955.9,286046997.8,N
1505231975.8,286046995.0,N
1505231995.6,286046995.9,N
